IRIDIUM 176 (43923 NORAD) Tracking and Keplerian Element Data

This shows tracking and keplerian element data for the satellite.

Feedback or suggestion? Click here.




ElementValue
Catalog43923
NameIRIDIUM 176
Epoch Orbit87
Epoch Day17.65169481
Epoch Year2019
RAAN45.0456
Inclination86.6775
Eccentricity0.0012093
Argument of Perigee189.2136
Mean Anonmoly310.3818
Mean Motion14.83375125
Decay Rate-4.59E-06
L11 43923U 19002B 19017.65169481 -.00000459 00000-0 -59301-4 0 9993
L22 43923 86.6775 45.0456 0012093 189.2136 310.3818 14.83375125 879

Live tracking and technical data element details for IRIDIUM 176 (NORAD 43923). IRIDIUM 176 can be tracked NOW for your location showing map with azimuth and elevation plus other details from your city location.

Track the satellite on the map from your city or location and see movement details for azimuth, elevation, latitude, longitude, range, height, and movement on the map or in text.







IsCatalogInMostPopularTable: catalog: 43923, numindb: 3
Update: records affected: 1



GetName: 43923 IRIDIUM 176

Hit Count: updated at: Fri, 18 Jan 2019 22:08:37 GMT